Weather in Rastatt

Germany     48°51′26″N   8°12′05″E
temp.,
°C
wind,
m/s
gust,
m/s
humid.,
%
clouds,
%
prec.,
mm/h
press.,
hPa
HPBL,
m
6 may, thu
thu623:00+4ssw3990100 0.6 1015316
02:00+4ssw2793100 0.6 1014368
05:00+4ssw3794100 0.3 1013300
08:00+5sw41091100 0.5 10121046
11:00+6sw2891100 0.8 1011982
14:00+6ssw4795100 2.1 1009853
17:00+7ssw2996100 4.2 1005627
20:00+9sw61794100 6.0 10031593
7 may, fri
fri723:00+8wsw5129799 4.7 10071155
02:00+5wsw41097100 5.3 10101138
05:00+4wsw3898100 1.4 1012642
08:00+4w3897100 1.9 1014869
11:00+6w598885 0.6 10171075
14:00+10w7114689 0.9 10172614
17:00+11w684583 0.0 10182335
20:00+8w26673 0.0 1019192
8 may, sat
sat823:00+4sse32760 0.0 102131
02:00+4sse2274100 0.0 102123
05:00+3se227396 0.0 102123
08:00+7se126283 0.0 1020118
11:00+12wnw234899 0.0 10181009
14:00+15w3446100 0.0 10161232
17:00+17sw354785 0.0 10141108
20:00+14ese117389 0.0 101312
9 may, sun
sun923:00+11se337320 0.0 101335
02:00+10se327727 0.0 101335
05:00+10se227412 0.0 101028
08:00+14se126439 0.0 100972
11:00+21wnw1247100 0.0 1008498
14:00+24w254376 0.0 10071306
17:00+25sw234222 0.0 10051317
20:00+19sse017294 0.0 100512
10 may, mon
mon1023:00+15se2276100 0.0 100616
02:00+14e227890 0.0 100525
05:00+13wsw4674100 0.0 1005161
08:00+15wsw387518 0.2 1009429
11:00+13w4682100 0.1 1012697
14:00+15w2371100 0.1 1012655
17:00+12nnw2396100 1.3 1011306
20:00+10n1399100 5.9 1010199